Location: Clegg Observatory
(38.9178°N, 78.6069°W)
Time: 05:20:07
(UTC-04:00)

Daily predictions for brighter satellites

Satellite Brightness Start Highest point End
(mag) Time Altitude Azimuth Time Altitude Azimuth Time Altitude Azimuth
CENTAUR R/B 4.3 02:56:30 27° NE 02:56:30 27° NE 02:59:24 10° NE
SL-16 R/B 4.1 03:33:25 28° N 03:33:25 28° N 03:36:12 10° N
Cosmos 2322 Rocket 3.7 03:58:57 29° N 03:58:57 29° N 04:01:45 10° NNE
SL-16 R/B 3.6 04:04:10 31° N 04:04:10 31° N 04:07:12 10° NNE
COSMOS 2428 4.2 04:09:54 29° ESE 04:10:36 29° ESE 04:15:27 10° NE
Resurs 1-4 Rocket 3.7 04:05:49 10° N 04:08:12 27° N 04:08:12 27° N
CZ-2D R/B 3.6 04:07:57 10° N 04:10:47 30° N 04:10:47 30° N
Okean O Rocket 3.7 04:12:45 10° NE 04:16:19 23° E 04:16:33 23° E
DELTA 2 R/B (1) 4.4 04:21:58 44° ESE 04:21:58 44° ESE 04:25:56 10° E
FALCON 9 R/B 4.3 04:17:39 52° WSW 04:21:40 69° S 05:06:20 10° ESE
Lacrosse 4 Rocket 4.0 04:26:46 14° ESE 04:26:46 14° ESE 04:27:29 10° ESE
Cosmos 2184 Rocket 4.2 04:19:47 10° N 04:25:58 66° E 04:28:01 43° SE
Cosmos 2360 Rocket 2.5 04:27:51 63° NNE 04:27:51 63° NNE 04:32:33 10° NNE
Cosmos 1980 Rocket 4.5 04:30:15 12° NNW 04:30:15 12° NNW 04:31:18 10° NNW
ADEOS II 3.5 04:30:11 10° NNE 04:34:57 34° E 04:37:45 21° SSE
ADEOS Rocket 3.7 04:33:33 10° N 04:37:11 36° NNW 04:37:11 36° NNW
CENTAUR R/B 4.1 04:43:40 22° NW 04:44:16 22° NW 04:49:32 10° NNE
USA 215 3.7 04:41:44 10° ESE 04:48:08 59° NE 04:54:32 10° NW
SL-08 ROCKET BODY 4.4 04:44:15 10° NNW 04:49:21 60° WNW 04:49:21 60° WNW
Cosmos 2208 Rocket 4.4 04:48:51 50° SSE 04:50:04 64° ESE 04:55:28 10° NNE
Cosmos 1536 Rocket 3.7 04:53:01 72° NE 04:53:01 72° NE 04:57:13 10° N
Cosmos 2333 Rocket 3.7 04:53:38 12° SSE 04:58:16 33° ESE 05:03:20 10° NE
Cosmos 2154 Rocket 4.3 04:53:47 10° N 04:59:58 64° E 05:06:05 10° SSE
Cosmos 1743 3.9 04:57:56 10° N 05:01:38 41° E 05:05:16 10° SSE
Cosmos 2322 3.9 05:04:46 49° WNW 05:04:58 49° WNW 05:10:32 10° NNE
PSLV R/B 4.1 05:02:45 10° NNE 05:07:02 58° E 05:08:52 32° SSE
CZ-4B R/B 2.9 05:04:58 10° NNE 05:08:01 62° NNE 05:08:01 62° NNE
Cosmos 2327 Rocket 4.5 05:05:37 10° NNW 05:11:44 56° W 05:13:53 38° SSW
Meteor 1-18 Rocket 4.5 05:12:25 45° WNW 05:12:28 45° WNW 05:17:50 10° N
EO 1 Del DPAF 3.3 05:13:26 17° SSE 05:16:19 76° ENE 05:20:11 10° N
Cosmos 1610 Rocket 4.4 05:12:22 10° NNW 05:18:36 68° W 05:24:53 10° S
Nadezhda 1 Rocket 3.9 05:16:39 40° SW 05:18:38 58° W 05:24:36 10° N
Meteor 1-12 Rocket 4.3 05:14:14 10° NNW 05:19:43 53° W 05:22:23 29° SSW
Cosmos 2181 Rocket 4.5 05:13:50 10° S 05:19:54 61° E 05:26:05 10° NNE
Meteor 2-13 Rocket 4.5 05:16:24 10° NNW 05:22:24 55° W 05:27:43 13° SSW
Cosmos 2333 4.1 05:21:50 37° SW 05:24:11 75° WNW 05:29:54 10° NNE
Cosmos 1570 Rocket 4.1 05:24:16 44° WSW 05:25:31 54° WNW 05:30:39 10° N
Cosmos 1844 4.2 05:20:16 10° NNW 05:26:01 63° ENE 05:31:37 10° SE
Meteor 1-13 Rocket 4.1 05:23:36 19° SSW 05:27:39 83° W 05:33:17 10° N
Cosmos 1898 Rocket 4.4 05:24:03 10° N 05:29:08 51° ENE 05:34:09 10° SE
BREEZE M DEB (TANK) 4.3 05:20:08 10° WNW 05:32:38 50° NNE 05:36:34 10° E
CZ-4B DEB 4.1 05:27:57 10° N 05:33:31 71° WNW 05:37:41 18° SSW
MOS 1 Rocket 4.1 05:29:33 10° N 05:33:35 30° WNW 05:33:35 30° WNW
CZ-4B R/B 3.2 05:28:28 10° N 05:34:06 71° WNW 05:38:17 18° SSW
Tiangong 2 0.8 05:34:35 82° W 05:34:41 86° SSW 05:37:49 10° ESE
IRS-P2 Rocket 4.5 05:30:51 10° N 05:36:04 77° WNW 05:40:28 15° SSW
GPS 2-04 Rocket1 4.3 05:36:09 21° S 05:37:19 24° SSE 05:40:28 10° ESE
Cosmos 2341 Rocket 3.9 05:34:25 10° N 05:40:42 82° W 05:46:53 10° S
Cosmos 1238 Rocket 2.9 05:42:00 36° NW 05:42:00 36° NW 05:44:11 10° N
IRS-1C Rocket 4.2 05:37:55 10° N 05:43:01 53° WNW 05:46:22 21° SW
Cosmos 1980 4.1 05:38:17 10° S 05:43:51 65° ESE 05:49:26 10° NNE
ERS-2 2.4 05:41:03 10° NNE 05:44:45 70° ESE 05:48:25 10° S
IRAS Rocket 4.3 05:41:51 10° N 05:47:19 60° WNW 05:52:15 13° SSW
CZ-2C R/B 3.8 05:46:37 10° S 05:51:05 51° W 05:55:30 10° NNW
Okean O Rocket 2.5 05:48:47 10° N 05:52:40 30° WNW 05:54:01 25° WSW
Cosmos 2219 Rocket 2.1 05:48:29 17° SW 05:52:51 66° WNW 05:58:25 10° NNE
Cosmos 1763 Rocket 4.3 05:49:37 10° S 05:54:30 52° ESE 05:59:28 10° NNE
COSMOS 2428 3.3 05:51:56 23° WSW 05:54:43 37° WNW 05:59:58 10° N
Cosmos 1025 Rocket 2.9 05:53:20 10° S 05:57:42 80° W 06:02:07 10° N
Cosmos 1937 Rocket 3.9 05:53:07 10° NNW 05:58:26 68° ENE 06:03:41 10° SSE
Meteor 2-9 Rocket 4.1 05:53:30 10° N 05:59:12 84° W 06:04:42 10° S
NOSS 0 Rocket 3.9 05:53:56 10° SSW 06:00:07 85° WNW 06:06:19 10° NNE
GENESIS II 4.3 05:57:24 15° SSW 06:00:45 87° ESE 06:04:51 10° NNE
Meteor 1-23 Rocket 4.2 05:55:03 10° S 06:00:51 85° W 06:06:39 10° N
Cosmos 1844 Rocket 2.8 05:56:05 10° NNW 06:01:27 49° WSW 06:06:46 10° S
Lacrosse 4 Rocket 3.0 06:03:25 17° SW 06:03:25 17° SW 06:05:11 10° SSW
Cosmos 1437 2.9 05:59:25 10° S 06:02:41 76° E 06:05:58 10° NNE
Okean-O 2.5 06:02:07 10° N 06:06:34 80° WNW 06:10:59 10° SSW
DELTA 2 R/B (1) 3.6 06:02:43 18° W 06:06:52 84° N 06:12:26 10° E
Cosmos 841 Rocket 4.2 06:03:21 10° S 06:08:23 57° ESE 06:13:26 10° NNE
Cosmos 1892 Rocket 4.0 06:04:07 10° S 06:08:24 66° E 06:12:44 10° NNE
USA 116 4.0 06:07:26 10° S 06:11:32 61° W 06:16:15 10° NNW
Cosmos 2360 Rocket 4.0 06:09:38 11° WNW 06:11:42 13° NW 06:14:26 10° NNW
NOAA 6 4.3 06:07:03 10° NNE 06:12:11 73° ESE 06:17:17 10° S
Cosmos 2285 Rocket 4.1 06:05:53 10° SSW 06:12:14 63° WNW 06:18:38 10° NNE
EXPRESS MD2 3.8 06:07:07 10° SW 06:12:20 53° SE 06:15:11 10° ENE
ADEOS II 3.0 06:10:06 10° N 06:14:32 28° WNW 06:18:42 11° WSW
Cosmos 2278 Rocket 2.2 06:11:26 10° NNW 06:17:09 90° SW 06:22:48 10° SSE
Cosmos 2298 Rocket 4.0 06:12:32 10° NNW 06:17:50 65° WSW 06:23:05 10° S
Cosmos 1814 Rocket 4.0 06:13:59 10° SSW 06:19:09 63° WNW 06:24:17 10° NNE
Cosmos 2237 Rocket 2.2 06:15:07 10° SSW 06:20:45 68° WNW 06:26:28 10° NNE
Cosmos 1959 Rocket 4.4 06:15:28 10° N 06:21:34 77° W 06:27:41 10° S
Cosmos 1441 Rocket 3.7 06:17:53 10° S 06:21:48 66° E 06:25:47 10° NNE
Aureole 2 Rocket 2.8 06:20:46 10° SW 06:24:17 44° WNW 06:27:33 10° N
Cosmos 1515 3.8 06:22:47 10° S 06:26:38 82° E 06:30:30 10° N
Meteor 2-4 Rocket 4.2 06:21:46 10° SW 06:26:58 39° WNW 06:32:04 10° N
Meteor 1-15 Rocket 4.3 06:21:30 10° NNW 06:27:23 68° W 06:33:14 10° S
Cosmos 405 Rocket 3.2 06:24:10 10° SSW 06:28:02 44° WNW 06:31:55 10° N
Cosmos 371 Rocket 3.4 06:23:22 10° SSW 06:28:12 83° ESE 06:33:07 10° NNE
Cosmos 1666 3.9 06:26:40 10° NW 06:29:45 23° W 06:32:49 10° SW
ATLAS 5 CENTAUR R/B 2.5 06:24:43 10° NW 06:30:49 76° WSW 06:37:22 10° SSE
USA 215 3.7 06:25:13 10° SSE 06:31:15 39° SW 06:37:18 10° WNW
Okean 2 3.8 06:27:47 10° SSW 06:31:45 43° W 06:35:45 10° N
Cosmos 332 Rocket 3.8 06:27:02 10° SSW 06:31:55 68° WNW 06:36:49 10° NNE
Cosmos 2366 rocket 4.0 06:28:42 10° NNW 06:35:01 69° W 06:41:19 10° S
Cosmos 1346 3.0 06:33:47 10° S 06:36:37 82° E 06:39:28 10° N
CZ-3A R/B 1.7 06:36:06 10° NW 06:36:44 12° NNW 06:37:34 10° N
Cosmos 2333 Rocket 3.0 06:37:19 10° WSW 06:42:27 34° WNW 06:47:40 10° N
SKYMED 2 3.5 06:39:04 10° S 06:43:22 71° WSW 06:47:43 10° NNW
Cosmos 2058 Rocket 3.1 06:40:40 10° NNW 06:45:08 67° W 06:49:31 10° S
USA 229 DEB 4.4 06:39:22 10° WSW 06:45:39 38° NW 06:52:04 10° NNE
USA 229 4.4 06:39:27 10° WSW 06:45:44 38° NW 06:52:10 10° NNE
Cosmos 1867 3.9 06:40:39 10° NW 06:45:51 47° WSW 06:51:00 10° S
